Location: Newark
(33.6333°S, 78.8500°W)
Time: 17:26:21
(UTC+00:00)

Tiros 1 - Pass Details

Date: 22 October 2019
Orbit: 630 x 664 km, 48.4° (Epoch: 19 November)

Event Time Altitude Azimuth Distance (km) Brightness Sun altitude
Rises 19:35:23 0° 255° (WSW) 2,949 11.0 48.0°
Reaches altitude 10° 19:38:33 10° 233° (SW) 2,037 10.1 47.4°
Maximum altitude 19:41:28 16° 194° (SSW) 1,669 9.4 46.8°
Drops below altitude 10° 19:44:22 10° 156° (SSE) 2,033 9.5 46.3°
Sets 19:47:32 0° 133° (SE) 2,941 10.1 45.6°
